Wetterdaten: Sonntag, 10.05.2015
Datum Zeit Temperatur Luftfeuchte Luftdruck Regen Wind Richtung Richtung Sonnenschein ET UV Solar Taupunkt Windchill Windben
10.05.2015 00:00 10,5 C 87 % 1021,3 hPa 0,0 l/m 1,6 km/h (1 Bft) W 278 0 min 0,000 mm 0,0 UV-I 0 W/m 8,4 C 10,5 C 8,0 km/h (2 Bft)
10.05.2015 00:05 10,5 C 87 % 1021,3 hPa 0,0 l/m 2,5 km/h (1 Bft) W-NW 291 0 min 0,000 mm 0,0 UV-I 0 W/m 8,4 C 10,5 C 11,3 km/h (2 Bft)
10.05.2015 00:10 10,5 C 87 % 1021,3 hPa 0,0 l/m 3,1 km/h (1 Bft) W-NW 290 0 min 0,000 mm 0,0 UV-I 0 W/m 8,4 C 10,5 C 9,7 km/h (2 Bft)
10.05.2015 00:15 10,5 C 87 % 1021,3 hPa 0,0 l/m 1,8 km/h (1 Bft) W 271 0 min 0,000 mm 0,0 UV-I 0 W/m 8,4 C 10,5 C 6,4 km/h (2 Bft)
10.05.2015 00:20 10,5 C 87 % 1021,4 hPa 0,0 l/m 1,9 km/h (1 Bft) W-NW 288 0 min 0,000 mm 0,0 UV-I 0 W/m 8,4 C 10,5 C 8,0 km/h (2 Bft)
10.05.2015 00:25 10,5 C 86 % 1021,4 hPa 0,0 l/m 2,3 km/h (1 Bft) W 269 0 min 0,000 mm 0,0 UV-I 0 W/m 8,3 C 10,5 C 11,3 km/h (2 Bft)
10.05.2015 00:30 10,7 C 86 % 1021,4 hPa 0,0 l/m 3,4 km/h (1 Bft) W-NW 296 0 min 0,000 mm 0,0 UV-I 0 W/m 8,5 C 10,7 C 12,9 km/h (3 Bft)
10.05.2015 00:35 10,7 C 86 % 1021,6 hPa 0,0 l/m 1,3 km/h (1 Bft) W-NW 282 0 min 0,000 mm 0,0 UV-I 0 W/m 8,5 C 10,7 C 6,4 km/h (2 Bft)
10.05.2015 00:40 10,8 C 86 % 1021,6 hPa 0,0 l/m 0,1 km/h (0 Bft) W-NW 284 0 min 0,000 mm 0,0 UV-I 0 W/m 8,6 C 10,8 C 3,2 km/h (1 Bft)
10.05.2015 00:45 10,8 C 86 % 1021,7 hPa 0,0 l/m 0,0 km/h (0 Bft) W-NW 290 0 min 0,000 mm 0,0 UV-I 0 W/m 8,6 C 10,8 C 0,0 km/h (0 Bft)
10.05.2015 00:50 10,7 C 86 % 1021,7 hPa 0,0 l/m 0,0 km/h (0 Bft) W-NW 293 0 min 0,000 mm 0,0 UV-I 0 W/m 8,5 C 10,7 C 1,6 km/h (1 Bft)
10.05.2015 00:55 10,8 C 86 % 1021,7 hPa 0,0 l/m 1,1 km/h (1 Bft) W-NW 290 0 min 0,000 mm 0,0 UV-I 0 W/m 8,6 C 10,8 C 6,4 km/h (2 Bft)
10.05.2015 01:00 10,8 C 86 % 1021,8 hPa 0,0 l/m 0,8 km/h (0 Bft) W 281 0 min 0,000 mm 0,0 UV-I 0 W/m 8,6 C 10,8 C 8,0 km/h (2 Bft)
10.05.2015 01:05 10,8 C 86 % 1021,9 hPa 0,0 l/m 0,4 km/h (0 Bft) NW 304 0 min 0,000 mm 0,0 UV-I 0 W/m 8,6 C 10,8 C 6,4 km/h (2 Bft)
10.05.2015 01:10 10,7 C 86 % 1021,9 hPa 0,0 l/m 0,0 km/h (0 Bft) W 278 0 min 0,000 mm 0,0 UV-I 0 W/m 8,5 C 10,7 C 0,0 km/h (0 Bft)
10.05.2015 01:15 10,7 C 87 % 1021,9 hPa 0,0 l/m 0,0 km/h (0 Bft) W-NW 284 0 min 0,000 mm 0,0 UV-I 0 W/m 8,6 C 10,7 C 0,0 km/h (0 Bft)
10.05.2015 01:20 10,6 C 87 % 1022,0 hPa 0,0 l/m 0,0 km/h (0 Bft) W-NW 284 0 min 0,000 mm 0,0 UV-I 0 W/m 8,5 C 10,6 C 0,0 km/h (0 Bft)
10.05.2015 01:25 10,4 C 88 % 1022,0 hPa 0,0 l/m 0,7 km/h (0 Bft) W 279 0 min 0,000 mm 0,0 UV-I 0 W/m 8,5 C 10,4 C 4,8 km/h (1 Bft)
10.05.2015 01:30 10,4 C 88 % 1022,0 hPa 0,0 l/m 0,5 km/h (0 Bft) W-NW 283 0 min 0,000 mm 0,0 UV-I 0 W/m 8,5 C 10,4 C 6,4 km/h (2 Bft)
10.05.2015 01:35 10,5 C 88 % 1022,0 hPa 0,0 l/m 0,1 km/h (0 Bft) W 276 0 min 0,000 mm 0,0 UV-I 0 W/m 8,6 C 10,5 C 3,2 km/h (1 Bft)
10.05.2015 01:40 10,6 C 87 % 1022,1 hPa 0,0 l/m 0,0 km/h (0 Bft) W 276 0 min 0,000 mm 0,0 UV-I 0 W/m 8,5 C 10,6 C 0,0 km/h (0 Bft)
10.05.2015 01:45 10,6 C 87 % 1022,1 hPa 0,0 l/m 0,0 km/h (0 Bft) W 276 0 min 0,000 mm 0,0 UV-I 0 W/m 8,5 C 10,6 C 0,0 km/h (0 Bft)
10.05.2015 01:50 10,6 C 87 % 1022,1 hPa 0,0 l/m 0,1 km/h (0 Bft) W 263 0 min 0,000 mm 0,0 UV-I 0 W/m 8,5 C 10,6 C 3,2 km/h (1 Bft)
10.05.2015 01:55 10,4 C 87 % 1022,1 hPa 0,0 l/m 0,0 km/h (0 Bft) W 263 0 min 0,000 mm 0,0 UV-I 0 W/m 8,3 C 10,4 C 0,0 km/h (0 Bft)
10.05.2015 02:00 10,3 C 88 % 1022,0 hPa 0,0 l/m 0,0 km/h (0 Bft) W-NW 300 0 min 0,000 mm 0,0 UV-I 0 W/m 8,4 C 10,3 C 1,6 km/h (1 Bft)
10.05.2015 02:05 10,3 C 88 % 1022,1 hPa 0,0 l/m 0,3 km/h (0 Bft) W-NW 291 0 min 0,000 mm 0,0 UV-I 0 W/m 8,4 C 10,3 C 4,8 km/h (1 Bft)
10.05.2015 02:10 10,3 C 88 % 1022,2 hPa 0,0 l/m 0,0 km/h (0 Bft) W-NW 292 0 min 0,000 mm 0,0 UV-I 0 W/m 8,4 C 10,3 C 0,0 km/h (0 Bft)
10.05.2015 02:15 10,3 C 88 % 1022,2 hPa 0,0 l/m 0,0 km/h (0 Bft) W-NW 292 0 min 0,000 mm 0,0 UV-I 0 W/m 8,4 C 10,3 C 0,0 km/h (0 Bft)
10.05.2015 02:20 10,3 C 88 % 1022,3 hPa 0,0 l/m 0,0 km/h (0 Bft) W-NW 292 0 min 0,000 mm 0,0 UV-I 0 W/m 8,4 C 10,3 C 0,0 km/h (0 Bft)
10.05.2015 02:25 10,2 C 89 % 1022,3 hPa 0,0 l/m 0,8 km/h (0 Bft) W 279 0 min 0,000 mm 0,0 UV-I 0 W/m 8,5 C 10,2 C 6,4 km/h (2 Bft)
10.05.2015 02:30 10,3 C 88 % 1022,4 hPa 0,0 l/m 3,1 km/h (1 Bft) NW 315 0 min 0,000 mm 0,0 UV-I 0 W/m 8,4 C 10,3 C 12,9 km/h (3 Bft)
10.05.2015 02:35 10,6 C 87 % 1022,4 hPa 0,0 l/m 2,7 km/h (1 Bft) W 270 0 min 0,000 mm 0,0 UV-I 0 W/m 8,5 C 10,6 C 11,3 km/h (2 Bft)
10.05.2015 02:40 10,8 C 86 % 1022,4 hPa 0,0 l/m 2,0 km/h (1 Bft) W-NW 294 0 min 0,000 mm 0,0 UV-I 0 W/m 8,6 C 10,8 C 14,5 km/h (3 Bft)
10.05.2015 02:45 11,0 C 84 % 1022,4 hPa 0,0 l/m 4,3 km/h (1 Bft) W-NW 287 0 min 0,000 mm 0,0 UV-I 0 W/m 8,4 C 11,0 C 12,9 km/h (3 Bft)
10.05.2015 02:50 11,1 C 83 % 1022,4 hPa 0,0 l/m 3,9 km/h (1 Bft) W-NW 297 0 min 0,000 mm 0,0 UV-I 0 W/m 8,3 C 11,1 C 12,9 km/h (3 Bft)
10.05.2015 02:55 11,1 C 83 % 1022,5 hPa 0,0 l/m 3,3 km/h (1 Bft) W 263 0 min 0,000 mm 0,0 UV-I 0 W/m 8,3 C 11,1 C 12,9 km/h (3 Bft)
10.05.2015 03:00 11,1 C 83 % 1022,5 hPa 0,0 l/m 2,8 km/h (1 Bft) W 271 0 min 0,000 mm 0,0 UV-I 0 W/m 8,3 C 11,1 C 12,9 km/h (3 Bft)
10.05.2015 03:05 11,1 C 83 % 1022,6 hPa 0,0 l/m 2,7 km/h (1 Bft) W 279 0 min 0,000 mm 0,0 UV-I 0 W/m 8,3 C 11,1 C 12,9 km/h (3 Bft)
10.05.2015 03:10 11,1 C 83 % 1022,6 hPa 0,0 l/m 2,4 km/h (1 Bft) W-NW 297 0 min 0,000 mm 0,0 UV-I 0 W/m 8,3 C 11,1 C 9,7 km/h (2 Bft)
10.05.2015 03:15 11,0 C 83 % 1022,7 hPa 0,0 l/m 1,3 km/h (1 Bft) W-NW 294 0 min 0,000 mm 0,0 UV-I 0 W/m 8,2 C 11,0 C 9,7 km/h (2 Bft)
10.05.2015 03:20 10,9 C 83 % 1022,7 hPa 0,0 l/m 2,1 km/h (1 Bft) W 274 0 min 0,000 mm 0,0 UV-I 0 W/m 8,1 C 10,9 C 6,4 km/h (2 Bft)
10.05.2015 03:25 10,9 C 83 % 1022,7 hPa 0,0 l/m 3,3 km/h (1 Bft) W-NW 282 0 min 0,000 mm 0,0 UV-I 0 W/m 8,1 C 10,9 C 9,7 km/h (2 Bft)
10.05.2015 03:30 10,9 C 83 % 1022,9 hPa 0,0 l/m 3,2 km/h (1 Bft) W 279 0 min 0,000 mm 0,0 UV-I 0 W/m 8,1 C 10,9 C 9,7 km/h (2 Bft)
10.05.2015 03:35 10,8 C 83 % 1022,8 hPa 0,0 l/m 2,2 km/h (1 Bft) W-NW 287 0 min 0,000 mm 0,0 UV-I 0 W/m 8,0 C 10,8 C 11,3 km/h (2 Bft)
10.05.2015 03:40 10,8 C 83 % 1022,9 hPa 0,0 l/m 1,8 km/h (1 Bft) W-NW 295 0 min 0,000 mm 0,0 UV-I 0 W/m 8,0 C 10,8 C 9,7 km/h (2 Bft)
10.05.2015 03:45 10,7 C 83 % 1022,9 hPa 0,0 l/m 1,7 km/h (1 Bft) W-NW 285 0 min 0,000 mm 0,0 UV-I 0 W/m 7,9 C 10,7 C 11,3 km/h (2 Bft)
10.05.2015 03:50 10,6 C 83 % 1023,0 hPa 0,0 l/m 1,5 km/h (1 Bft) W-NW 290 0 min 0,000 mm 0,0 UV-I 0 W/m 7,8 C 10,6 C 8,0 km/h (2 Bft)
10.05.2015 03:55 10,5 C 84 % 1023,1 hPa 0,0 l/m 1,5 km/h (1 Bft) NW 316 0 min 0,000 mm 0,0 UV-I 0 W/m 7,9 C 10,5 C 8,0 km/h (2 Bft)
10.05.2015 04:00 10,4 C 84 % 1023,3 hPa 0,0 l/m 1,9 km/h (1 Bft) W-NW 291 0 min 0,000 mm 0,0 UV-I 0 W/m 7,8 C 10,4 C 6,4 km/h (2 Bft)
10.05.2015 04:05 10,4 C 84 % 1023,3 hPa 0,0 l/m 1,0 km/h (0 Bft) W 276 0 min 0,025 mm 0,0 UV-I 0 W/m 7,8 C 10,4 C 6,4 km/h (2 Bft)
10.05.2015 04:10 10,3 C 84 % 1023,3 hPa 0,0 l/m 0,6 km/h (0 Bft) W-NW 286 0 min 0,000 mm 0,0 UV-I 0 W/m 7,7 C 10,3 C 4,8 km/h (1 Bft)
10.05.2015 04:15 10,3 C 84 % 1023,3 hPa 0,0 l/m 1,7 km/h (1 Bft) W-NW 291 0 min 0,000 mm 0,0 UV-I 0 W/m 7,7 C 10,3 C 6,4 km/h (2 Bft)
10.05.2015 04:20 10,3 C 84 % 1023,4 hPa 0,0 l/m 3,4 km/h (1 Bft) N-NW 343 0 min 0,000 mm 0,0 UV-I 0 W/m 7,7 C 10,3 C 9,7 km/h (2 Bft)
10.05.2015 04:25 10,3 C 85 % 1023,4 hPa 0,0 l/m 2,3 km/h (1 Bft) W 275 0 min 0,000 mm 0,0 UV-I 0 W/m 7,9 C 10,3 C 8,0 km/h (2 Bft)
10.05.2015 04:30 10,2 C 85 % 1023,5 hPa 0,0 l/m 1,8 km/h (1 Bft) W-NW 286 0 min 0,000 mm 0,0 UV-I 0 W/m 7,8 C 10,2 C 9,7 km/h (2 Bft)
10.05.2015 04:35 10,2 C 85 % 1023,5 hPa 0,0 l/m 1,9 km/h (1 Bft) W-NW 285 0 min 0,000 mm 0,0 UV-I 0 W/m 7,8 C 10,2 C 6,4 km/h (2 Bft)
10.05.2015 04:40 10,3 C 85 % 1023,7 hPa 0,0 l/m 2,3 km/h (1 Bft) W-NW 289 0 min 0,000 mm 0,0 UV-I 0 W/m 7,9 C 10,3 C 6,4 km/h (2 Bft)
10.05.2015 04:45 10,3 C 85 % 1023,7 hPa 0,0 l/m 1,8 km/h (1 Bft) W-NW 289 0 min 0,000 mm 0,0 UV-I 0 W/m 7,9 C 10,3 C 9,7 km/h (2 Bft)
10.05.2015 04:50 10,3 C 85 % 1023,7 hPa 0,0 l/m 0,9 km/h (0 Bft) W 265 0 min 0,000 mm 0,0 UV-I 0 W/m 7,9 C 10,3 C 8,0 km/h (2 Bft)
10.05.2015 04:55 10,3 C 85 % 1023,8 hPa 0,0 l/m 1,4 km/h (1 Bft) W-NW 288 0 min 0,000 mm 0,0 UV-I 0 W/m 7,9 C 10,3 C 8,0 km/h (2 Bft)
10.05.2015 05:00 10,2 C 85 % 1023,9 hPa 0,0 l/m 0,1 km/h (0 Bft) W-NW 288 0 min 0,000 mm 0,0 UV-I 0 W/m 7,8 C 10,2 C 3,2 km/h (1 Bft)
10.05.2015 05:05 10,2 C 86 % 1024,1 hPa 0,0 l/m 0,4 km/h (0 Bft) W 272 0 min 0,000 mm 0,0 UV-I 0 W/m 8,0 C 10,2 C 6,4 km/h (2 Bft)
10.05.2015 05:10 10,2 C 86 % 1024,0 hPa 0,0 l/m 0,0 km/h (0 Bft) W 275 0 min 0,000 mm 0,0 UV-I 0 W/m 8,0 C 10,2 C 1,6 km/h (1 Bft)
10.05.2015 05:15 10,1 C 86 % 1024,0 hPa 0,0 l/m 0,3 km/h (0 Bft) W 279 0 min 0,000 mm 0,0 UV-I 0 W/m 7,9 C 10,1 C 6,4 km/h (2 Bft)
10.05.2015 05:20 10,0 C 86 % 1024,0 hPa 0,0 l/m 0,0 km/h (0 Bft) W 278 0 min 0,000 mm 0,0 UV-I 0 W/m 7,8 C 10,0 C 0,0 km/h (0 Bft)
10.05.2015 05:25 9,9 C 87 % 1024,0 hPa 0,0 l/m 0,0 km/h (0 Bft) W 278 0 min 0,000 mm 0,0 UV-I 0 W/m 7,8 C 9,9 C 1,6 km/h (1 Bft)
10.05.2015 05:30 9,8 C 87 % 1024,0 hPa 0,0 l/m 0,0 km/h (0 Bft) W 278 0 min 0,000 mm 0,0 UV-I 0 W/m 7,7 C 9,8 C 0,0 km/h (0 Bft)
10.05.2015 05:35 9,8 C 87 % 1024,1 hPa 0,0 l/m 0,0 km/h (0 Bft) W 278 0 min 0,000 mm 0,0 UV-I 0 W/m 7,7 C 9,8 C 0,0 km/h (0 Bft)
10.05.2015 05:40 9,7 C 88 % 1024,0 hPa 0,0 l/m 0,0 km/h (0 Bft) W 278 0 min 0,000 mm 0,0 UV-I 0 W/m 7,8 C 9,7 C 0,0 km/h (0 Bft)
10.05.2015 05:45 9,7 C 88 % 1024,0 hPa 0,0 l/m 0,0 km/h (0 Bft) W 278 0 min 0,000 mm 0,0 UV-I 0 W/m 7,8 C 9,7 C 0,0 km/h (0 Bft)
10.05.2015 05:50 9,7 C 88 % 1024,1 hPa 0,0 l/m 0,0 km/h (0 Bft) W 278 0 min 0,000 mm 0,0 UV-I 0 W/m 7,8 C 9,7 C 0,0 km/h (0 Bft)
10.05.2015 05:55 9,7 C 89 % 1024,2 hPa 0,0 l/m 0,0 km/h (0 Bft) W 278 0 min 0,000 mm 0,0 UV-I 0 W/m 8,0 C 9,7 C 0,0 km/h (0 Bft)
10.05.2015 06:00 9,7 C 89 % 1024,3 hPa 0,0 l/m 0,0 km/h (0 Bft) W 278 0 min 0,000 mm 0,0 UV-I 0 W/m 8,0 C 9,7 C 0,0 km/h (0 Bft)
10.05.2015 06:05 9,6 C 89 % 1024,3 hPa 0,0 l/m 0,0 km/h (0 Bft) W 278 0 min 0,000 mm 0,0 UV-I 5 W/m 7,9 C 9,6 C 0,0 km/h (0 Bft)
10.05.2015 06:10 9,6 C 89 % 1024,4 hPa 0,0 l/m 0,0 km/h (0 Bft) W 278 0 min 0,000 mm 0,0 UV-I 9 W/m 7,9 C 9,6 C 0,0 km/h (0 Bft)
10.05.2015 06:15 9,6 C 89 % 1024,4 hPa 0,0 l/m 0,0 km/h (0 Bft) W 278 0 min 0,000 mm 0,0 UV-I 12 W/m 7,9 C 9,6 C 0,0 km/h (0 Bft)
10.05.2015 06:20 9,6 C 89 % 1024,5 hPa 0,0 l/m 0,0 km/h (0 Bft) W 278 0 min 0,000 mm 0,0 UV-I 17 W/m 7,9 C 9,6 C 0,0 km/h (0 Bft)
10.05.2015 06:25 9,6 C 89 % 1024,5 hPa 0,0 l/m 0,0 km/h (0 Bft) W 278 0 min 0,000 mm 0,0 UV-I 17 W/m 7,9 C 9,6 C 0,0 km/h (0 Bft)
10.05.2015 06:30 9,6 C 90 % 1024,6 hPa 0,0 l/m 0,0 km/h (0 Bft) W 278 0 min 0,000 mm 0,0 UV-I 15 W/m 8,0 C 9,6 C 0,0 km/h (0 Bft)
10.05.2015 06:35 9,6 C 90 % 1024,6 hPa 0,0 l/m 0,0 km/h (0 Bft) W 278 0 min 0,000 mm 0,0 UV-I 11 W/m 8,0 C 9,6 C 0,0 km/h (0 Bft)
10.05.2015 06:40 9,6 C 90 % 1024,7 hPa 0,0 l/m 0,0 km/h (0 Bft) W 278 0 min 0,000 mm 0,0 UV-I 13 W/m 8,0 C 9,6 C 0,0 km/h (0 Bft)
10.05.2015 06:45 9,6 C 90 % 1024,7 hPa 0,0 l/m 0,0 km/h (0 Bft) W 278 0 min 0,000 mm 0,0 UV-I 13 W/m 8,0 C 9,6 C 0,0 km/h (0 Bft)
10.05.2015 06:50 9,6 C 90 % 1024,8 hPa 0,0 l/m 0,0 km/h (0 Bft) W 278 0 min 0,000 mm 0,0 UV-I 26 W/m 8,0 C 9,6 C 0,0 km/h (0 Bft)
10.05.2015 06:55 9,7 C 90 % 1024,8 hPa 0,0 l/m 0,0 km/h (0 Bft) W 278 0 min 0,000 mm 0,0 UV-I 20 W/m 8,1 C 9,7 C 0,0 km/h (0 Bft)
10.05.2015 07:00 9,7 C 90 % 1024,9 hPa 0,0 l/m 0,0 km/h (0 Bft) W 278 0 min 0,000 mm 0,0 UV-I 25 W/m 8,1 C 9,7 C 0,0 km/h (0 Bft)
10.05.2015 07:05 9,8 C 90 % 1025,0 hPa 0,0 l/m 0,0 km/h (0 Bft) W 279 0 min 0,000 mm 0,0 UV-I 27 W/m 8,2 C 9,8 C 1,6 km/h (1 Bft)
10.05.2015 07:10 9,9 C 90 % 1024,9 hPa 0,0 l/m 0,0 km/h (0 Bft) W-NW 289 0 min 0,000 mm 0,0 UV-I 40 W/m 8,3 C 9,9 C 1,6 km/h (1 Bft)
10.05.2015 07:15 10,1 C 89 % 1025,0 hPa 0,0 l/m 0,0 km/h (0 Bft) W-NW 288 0 min 0,000 mm 0,0 UV-I 56 W/m 8,4 C 10,1 C 0,0 km/h (0 Bft)
10.05.2015 07:20 10,2 C 89 % 1025,0 hPa 0,0 l/m 0,0 km/h (0 Bft) W-NW 288 0 min 0,000 mm 0,0 UV-I 56 W/m 8,5 C 10,2 C 0,0 km/h (0 Bft)
10.05.2015 07:25 10,2 C 89 % 1025,0 hPa 0,0 l/m 0,0 km/h (0 Bft) W-NW 288 0 min 0,000 mm 0,0 UV-I 53 W/m 8,5 C 10,2 C 0,0 km/h (0 Bft)
10.05.2015 07:30 10,2 C 89 % 1025,0 hPa 0,0 l/m 0,0 km/h (0 Bft) W-NW 288 0 min 0,000 mm 0,0 UV-I 71 W/m 8,5 C 10,2 C 0,0 km/h (0 Bft)
10.05.2015 07:35 10,2 C 89 % 1025,0 hPa 0,0 l/m 0,0 km/h (0 Bft) W-NW 288 0 min 0,000 mm 0,0 UV-I 99 W/m 8,5 C 10,2 C 0,0 km/h (0 Bft)
10.05.2015 07:40 10,2 C 89 % 1025,0 hPa 0,0 l/m 0,0 km/h (0 Bft) SW 232 0 min 0,000 mm 0,1 UV-I 105 W/m 8,5 C 10,2 C 0,0 km/h (0 Bft)
10.05.2015 07:45 10,4 C 89 % 1024,9 hPa 0,0 l/m 0,2 km/h (0 Bft) SW 229 0 min 0,000 mm 0,5 UV-I 120 W/m 8,7 C 10,4 C 3,2 km/h (1 Bft)
10.05.2015 07:50 10,6 C 89 % 1025,1 hPa 0,0 l/m 0,0 km/h (0 Bft) W-SW 248 0 min 0,000 mm 0,5 UV-I 148 W/m 8,9 C 10,6 C 0,0 km/h (0 Bft)
10.05.2015 07:55 10,7 C 89 % 1025,0 hPa 0,0 l/m 0,0 km/h (0 Bft) W-SW 248 0 min 0,000 mm 0,3 UV-I 113 W/m 9,0 C 10,7 C 0,0 km/h (0 Bft)
10.05.2015 08:00 10,8 C 87 % 1025,2 hPa 0,0 l/m 0,9 km/h (0 Bft) W 268 0 min 0,051 mm 0,4 UV-I 118 W/m 8,7 C 10,8 C 6,4 km/h (2 Bft)
10.05.2015 08:05 11,0 C 85 % 1025,2 hPa 0,0 l/m 2,4 km/h (1 Bft) W 260 0 min 0,000 mm 0,0 UV-I 102 W/m 8,6 C 11,0 C 8,0 km/h (2 Bft)
10.05.2015 08:10 11,1 C 85 % 1025,3 hPa 0,0 l/m 1,0 km/h (0 Bft) NO 34 0 min 0,000 mm 0,0 UV-I 100 W/m 8,7 C 11,1 C 11,3 km/h (2 Bft)
10.05.2015 08:15 11,2 C 84 % 1025,4 hPa 0,0 l/m 2,3 km/h (1 Bft) W-NW 294 0 min 0,000 mm 0,0 UV-I 84 W/m 8,6 C 11,2 C 8,0 km/h (2 Bft)
10.05.2015 08:20 11,2 C 84 % 1025,4 hPa 0,0 l/m 0,4 km/h (0 Bft) W-NW 298 0 min 0,000 mm 0,0 UV-I 64 W/m 8,6 C 11,2 C 4,8 km/h (1 Bft)
10.05.2015 08:25 11,2 C 82 % 1025,5 hPa 0,0 l/m 6,6 km/h (2 Bft) W-NW 289 0 min 0,000 mm 0,0 UV-I 58 W/m 8,2 C 11,1 C 14,5 km/h (3 Bft)
10.05.2015 08:30 11,2 C 83 % 1025,5 hPa 0,0 l/m 0,3 km/h (0 Bft) W 269 0 min 0,000 mm 0,0 UV-I 63 W/m 8,4 C 11,2 C 4,8 km/h (1 Bft)
10.05.2015 08:35 11,3 C 83 % 1025,5 hPa 0,0 l/m 0,3 km/h (0 Bft) W 262 0 min 0,000 mm 0,5 UV-I 94 W/m 8,5 C 11,3 C 4,8 km/h (1 Bft)
10.05.2015 08:40 11,4 C 83 % 1025,7 hPa 0,0 l/m 1,3 km/h (1 Bft) W-SW 245 5 min 0,000 mm 0,7 UV-I 264 W/m 8,6 C 11,4 C 12,9 km/h (3 Bft)
10.05.2015 08:45 11,4 C 82 % 1025,6 hPa 0,0 l/m 1,7 km/h (1 Bft) W 263 0 min 0,000 mm 0,7 UV-I 135 W/m 8,4 C 11,4 C 11,3 km/h (2 Bft)
10.05.2015 08:50 11,5 C 82 % 1025,6 hPa 0,0 l/m 1,6 km/h (1 Bft) W 261 5 min 0,000 mm 1,0 UV-I 264 W/m 8,5 C 11,5 C 12,9 km/h (3 Bft)
10.05.2015 08:55 11,6 C 81 % 1025,7 hPa 0,0 l/m 1,5 km/h (1 Bft) W 266 5 min 0,000 mm 1,2 UV-I 381 W/m 8,5 C 11,6 C 9,7 km/h (2 Bft)
10.05.2015 09:00 11,7 C 80 % 1025,7 hPa 0,0 l/m 3,8 km/h (1 Bft) W-SW 247 5 min 0,076 mm 1,3 UV-I 426 W/m 8,4 C 11,7 C 12,9 km/h (3 Bft)
10.05.2015 09:05 11,9 C 81 % 1025,7 hPa 0,0 l/m 5,4 km/h (1 Bft) W 267 5 min 0,000 mm 1,3 UV-I 436 W/m 8,7 C 11,9 C 22,5 km/h (4 Bft)
10.05.2015 09:10 12,1 C 79 % 1025,7 hPa 0,0 l/m 1,4 km/h (1 Bft) W 265 5 min 0,000 mm 1,0 UV-I 281 W/m 8,6 C 12,1 C 8,0 km/h (2 Bft)
10.05.2015 09:15 12,3 C 78 % 1025,7 hPa 0,0 l/m 0,7 km/h (0 Bft) N-NW 344 0 min 0,000 mm 1,0 UV-I 227 W/m 8,6 C 12,3 C 6,4 km/h (2 Bft)
10.05.2015 09:20 12,3 C 77 % 1025,8 hPa 0,0 l/m 1,7 km/h (1 Bft) W 261 0 min 0,000 mm 1,2 UV-I 234 W/m 8,4 C 12,3 C 9,7 km/h (2 Bft)
10.05.2015 09:25 12,3 C 77 % 1025,8 hPa 0,0 l/m 0,7 km/h (0 Bft) W-SW 246 0 min 0,000 mm 1,2 UV-I 258 W/m 8,4 C 12,3 C 4,8 km/h (1 Bft)
10.05.2015 09:30 12,5 C 77 % 1025,8 hPa 0,0 l/m 3,8 km/h (1 Bft) SW 227 5 min 0,000 mm 1,6 UV-I 346 W/m 8,6 C 12,5 C 12,9 km/h (3 Bft)
10.05.2015 09:35 12,4 C 75 % 1025,9 hPa 0,0 l/m 7,0 km/h (2 Bft) S-SW 213 5 min 0,000 mm 1,4 UV-I 327 W/m 8,1 C 12,0 C 17,7 km/h (3 Bft)
10.05.2015 09:40 12,4 C 76 % 1025,9 hPa 0,0 l/m 2,4 km/h (1 Bft) SW 236 5 min 0,000 mm 1,8 UV-I 444 W/m 8,3 C 12,4 C 11,3 km/h (2 Bft)
10.05.2015 09:45 13,1 C 75 % 1026,0 hPa 0,0 l/m 1,1 km/h (1 Bft) W-NW 292 5 min 0,000 mm 1,9 UV-I 534 W/m 8,8 C 13,1 C 8,0 km/h (2 Bft)
10.05.2015 09:50 13,9 C 74 % 1025,9 hPa 0,0 l/m 0,2 km/h (0 Bft) W-NW 295 5 min 0,000 mm 2,1 UV-I 674 W/m 9,3 C 13,9 C 6,4 km/h (2 Bft)
10.05.2015 09:55 14,1 C 70 % 1025,8 hPa 0,0 l/m 3,0 km/h (1 Bft) NW 323 5 min 0,000 mm 1,7 UV-I 540 W/m 8,7 C 14,1 C 17,7 km/h (3 Bft)
10.05.2015 10:00 13,5 C 70 % 1025,9 hPa 0,0 l/m 6,6 km/h (2 Bft) W 271 0 min 0,204 mm 1,6 UV-I 279 W/m 8,1 C 13,4 C 17,7 km/h (3 Bft)
10.05.2015 10:05 13,3 C 71 % 1025,9 hPa 0,0 l/m 5,2 km/h (1 Bft) W 273 5 min 0,000 mm 2,1 UV-I 513 W/m 8,2 C 13,3 C 12,9 km/h (3 Bft)
10.05.2015 10:10 13,4 C 71 % 1025,9 hPa 0,0 l/m 4,8 km/h (1 Bft) W 268 5 min 0,000 mm 2,1 UV-I 501 W/m 8,3 C 13,4 C 12,9 km/h (3 Bft)
10.05.2015 10:15 13,2 C 70 % 1026,0 hPa 0,0 l/m 8,8 km/h (2 Bft) W 262 5 min 0,000 mm 2,1 UV-I 519 W/m 7,9 C 11,8 C 20,9 km/h (4 Bft)
10.05.2015 10:20 13,3 C 70 % 1025,9 hPa 0,0 l/m 10,2 km/h (2 Bft) N-NW 336 5 min 0,000 mm 2,0 UV-I 582 W/m 7,9 C 11,1 C 22,5 km/h (4 Bft)
10.05.2015 10:25 13,1 C 70 % 1026,0 hPa 0,0 l/m 8,6 km/h (2 Bft) W-SW 255 0 min 0,000 mm 1,9 UV-I 200 W/m 7,8 C 11,8 C 24,1 km/h (4 Bft)
10.05.2015 10:30 13,2 C 70 % 1026,0 hPa 0,0 l/m 8,5 km/h (2 Bft) NW 316 5 min 0,000 mm 3,0 UV-I 597 W/m 7,9 C 11,9 C 20,9 km/h (4 Bft)
10.05.2015 10:35 13,8 C 66 % 1026,0 hPa 0,0 l/m 7,8 km/h (2 Bft) W-NW 284 5 min 0,000 mm 3,0 UV-I 586 W/m 7,6 C 13,0 C 22,5 km/h (4 Bft)
10.05.2015 10:40 14,1 C 65 % 1026,0 hPa 0,0 l/m 8,4 km/h (2 Bft) W 279 5 min 0,000 mm 3,3 UV-I 756 W/m 7,6 C 12,9 C 20,9 km/h (4 Bft)
10.05.2015 10:45 14,4 C 63 % 1026,1 hPa 0,0 l/m 5,3 km/h (1 Bft) SW 236 5 min 0,000 mm 3,1 UV-I 823 W/m 7,4 C 14,4 C 16,1 km/h (3 Bft)
10.05.2015 10:50 14,1 C 65 % 1026,2 hPa 0,0 l/m 8,8 km/h (2 Bft) NW 310 0 min 0,000 mm 2,1 UV-I 273 W/m 7,6 C 12,7 C 25,7 km/h (4 Bft)
10.05.2015 10:55 14,3 C 65 % 1026,3 hPa 0,0 l/m 6,6 km/h (2 Bft) W-NW 302 5 min 0,000 mm 3,4 UV-I 603 W/m 7,8 C 14,2 C 17,7 km/h (3 Bft)
10.05.2015 11:00 14,3 C 63 % 1026,3 hPa 0,0 l/m 7,2 km/h (2 Bft) W 268 5 min 0,000 mm 2,3 UV-I 478 W/m 7,4 C 13,8 C 22,5 km/h (4 Bft)
10.05.2015 11:05 14,1 C 67 % 1026,4 hPa 0,0 l/m 3,1 km/h (1 Bft) W-NW 294 0 min 0,304 mm 2,5 UV-I 329 W/m 8,1 C 14,1 C 11,3 km/h (2 Bft)
10.05.2015 11:10 14,2 C 64 % 1026,3 hPa 0,0 l/m 6,0 km/h (2 Bft) W 281 5 min 0,000 mm 3,7 UV-I 624 W/m 7,5 C 14,2 C 14,5 km/h (3 Bft)
10.05.2015 11:15 15,3 C 61 % 1026,3 hPa 0,0 l/m 4,2 km/h (1 Bft) W 281 5 min 0,000 mm 4,0 UV-I 841 W/m 7,8 C 15,3 C 17,7 km/h (3 Bft)
10.05.2015 11:20 15,2 C 62 % 1026,4 hPa 0,0 l/m 3,8 km/h (1 Bft) W 259 5 min 0,000 mm 2,9 UV-I 580 W/m 8,0 C 15,2 C 14,5 km/h (3 Bft)
10.05.2015 11:25 15,0 C 61 % 1026,4 hPa 0,0 l/m 3,2 km/h (1 Bft) W 271 0 min 0,000 mm 2,4 UV-I 277 W/m 7,5 C 15,0 C 17,7 km/h (3 Bft)
10.05.2015 11:30 14,7 C 60 % 1026,5 hPa 0,0 l/m 8,3 km/h (2 Bft) NW 305 5 min 0,000 mm 3,4 UV-I 517 W/m 7,0 C 13,6 C 17,7 km/h (3 Bft)
10.05.2015 11:35 15,3 C 62 % 1026,6 hPa 0,0 l/m 3,9 km/h (1 Bft) NW 304 5 min 0,000 mm 4,1 UV-I 761 W/m 8,1 C 15,3 C 16,1 km/h (3 Bft)
10.05.2015 11:40 15,6 C 58 % 1026,6 hPa 0,0 l/m 3,9 km/h (1 Bft) W 269 5 min 0,000 mm 3,7 UV-I 773 W/m 7,4 C 15,6 C 19,3 km/h (3 Bft)
10.05.2015 11:45 15,3 C 60 % 1026,7 hPa 0,0 l/m 6,8 km/h (2 Bft) W-NW 296 0 min 0,000 mm 3,1 UV-I 346 W/m 7,6 C 15,1 C 19,3 km/h (3 Bft)
10.05.2015 11:50 15,4 C 60 % 1026,6 hPa 0,0 l/m 5,8 km/h (2 Bft) W-NW 288 5 min 0,000 mm 4,4 UV-I 801 W/m 7,7 C 15,4 C 12,9 km/h (3 Bft)
10.05.2015 11:55 15,4 C 61 % 1026,7 hPa 0,0 l/m 5,9 km/h (2 Bft) W-NW 302 5 min 0,000 mm 4,7 UV-I 868 W/m 7,9 C 15,4 C 19,3 km/h (3 Bft)
10.05.2015 12:00 16,6 C 58 % 1026,8 hPa 0,0 l/m 3,2 km/h (1 Bft) NW 305 5 min 0,000 mm 4,1 UV-I 836 W/m 8,3 C 16,6 C 17,7 km/h (3 Bft)
10.05.2015 12:05 16,6 C 55 % 1026,9 hPa 0,0 l/m 7,0 km/h (2 Bft) NW 319 5 min 0,356 mm 4,3 UV-I 755 W/m 7,5 C 16,3 C 16,1 km/h (3 Bft)
10.05.2015 12:10 15,6 C 54 % 1026,9 hPa 0,0 l/m 12,0 km/h (2 Bft) W-NW 298 5 min 0,000 mm 4,8 UV-I 834 W/m 6,3 C 13,0 C 22,5 km/h (4 Bft)
10.05.2015 12:15 16,1 C 57 % 1026,8 hPa 0,0 l/m 5,5 km/h (1 Bft) NW 305 5 min 0,000 mm 4,1 UV-I 853 W/m 7,6 C 16,1 C 19,3 km/h (3 Bft)
10.05.2015 12:20 16,1 C 56 % 1026,9 hPa 0,0 l/m 6,5 km/h (2 Bft) NW 320 5 min 0,000 mm 3,9 UV-I 529 W/m 7,3 C 16,1 C 19,3 km/h (3 Bft)
10.05.2015 12:25 16,1 C 55 % 1026,8 hPa 0,0 l/m 3,7 km/h (1 Bft) W-SW 243 5 min 0,000 mm 5,1 UV-I 912 W/m 7,1 C 16,1 C 16,1 km/h (3 Bft)
10.05.2015 12:30 16,3 C 56 % 1026,8 hPa 0,0 l/m 4,7 km/h (1 Bft) W-SW 255 5 min 0,000 mm 3,7 UV-I 543 W/m 7,5 C 16,3 C 16,1 km/h (3 Bft)
10.05.2015 12:35 16,2 C 55 % 1026,9 hPa 0,0 l/m 4,3 km/h (1 Bft) W-NW 297 5 min 0,000 mm 4,1 UV-I 507 W/m 7,2 C 16,2 C 16,1 km/h (3 Bft)
10.05.2015 12:40 16,0 C 56 % 1026,7 hPa 0,0 l/m 4,4 km/h (1 Bft) W-NW 295 0 min 0,000 mm 3,1 UV-I 355 W/m 7,2 C 16,0 C 14,5 km/h (3 Bft)
10.05.2015 12:45 15,8 C 54 % 1026,7 hPa 0,0 l/m 5,6 km/h (1 Bft) W-NW 293 5 min 0,000 mm 5,3 UV-I 760 W/m 6,5 C 15,8 C 16,1 km/h (3 Bft)
10.05.2015 12:50 16,0 C 53 % 1026,7 hPa 0,0 l/m 6,7 km/h (2 Bft) W-NW 284 5 min 0,000 mm 5,3 UV-I 870 W/m 6,4 C 15,8 C 22,5 km/h (4 Bft)
10.05.2015 12:55 16,1 C 55 % 1026,7 hPa 0,0 l/m 5,4 km/h (1 Bft) S-SW 193 5 min 0,000 mm 4,9 UV-I 899 W/m 7,1 C 16,1 C 14,5 km/h (3 Bft)
10.05.2015 13:00 16,4 C 56 % 1026,7 hPa 0,0 l/m 5,6 km/h (1 Bft) S-SW 212 5 min 0,000 mm 5,2 UV-I 878 W/m 7,6 C 16,4 C 16,1 km/h (3 Bft)
10.05.2015 13:05 16,8 C 52 % 1026,8 hPa 0,0 l/m 5,7 km/h (1 Bft) W 275 5 min 0,406 mm 5,4 UV-I 863 W/m 6,9 C 16,8 C 20,9 km/h (4 Bft)
10.05.2015 13:10 16,5 C 52 % 1026,9 hPa 0,0 l/m 4,6 km/h (1 Bft) W-SW 243 5 min 0,000 mm 5,5 UV-I 879 W/m 6,6 C 16,5 C 14,5 km/h (3 Bft)
10.05.2015 13:15 16,9 C 52 % 1026,9 hPa 0,0 l/m 4,3 km/h (1 Bft) W 275 5 min 0,000 mm 5,5 UV-I 880 W/m 7,0 C 16,9 C 12,9 km/h (3 Bft)
10.05.2015 13:20 17,6 C 55 % 1026,9 hPa 0,0 l/m 0,5 km/h (0 Bft) W-NW 303 5 min 0,000 mm 5,1 UV-I 897 W/m 8,5 C 17,6 C 8,0 km/h (2 Bft)
10.05.2015 13:25 18,3 C 50 % 1026,9 hPa 0,0 l/m 0,5 km/h (0 Bft) W-NW 294 0 min 0,000 mm 3,2 UV-I 363 W/m 7,7 C 18,3 C 4,8 km/h (1 Bft)
10.05.2015 13:30 17,7 C 50 % 1026,8 hPa 0,0 l/m 2,2 km/h (1 Bft) W-NW 300 0 min 0,000 mm 3,8 UV-I 274 W/m 7,1 C 17,7 C 12,9 km/h (3 Bft)
10.05.2015 13:35 17,3 C 50 % 1026,8 hPa 0,0 l/m 7,2 km/h (2 Bft) SW 236 5 min 0,000 mm 5,5 UV-I 891 W/m 6,8 C 16,9 C 19,3 km/h (3 Bft)
10.05.2015 13:40 16,7 C 51 % 1026,8 hPa 0,0 l/m 9,4 km/h (2 Bft) SW 214 5 min 0,000 mm 5,6 UV-I 917 W/m 6,5 C 15,2 C 16,1 km/h (3 Bft)
10.05.2015 13:45 17,0 C 52 % 1026,8 hPa 0,0 l/m 5,3 km/h (1 Bft) NW 305 5 min 0,000 mm 4,6 UV-I 834 W/m 7,1 C 17,0 C 19,3 km/h (3 Bft)
10.05.2015 13:50 17,8 C 49 % 1026,7 hPa 0,0 l/m 2,1 km/h (1 Bft) W-NW 290 0 min 0,000 mm 4,5 UV-I 388 W/m 6,9 C 17,8 C 9,7 km/h (2 Bft)
10.05.2015 13:55 18,2 C 48 % 1026,6 hPa 0,0 l/m 2,6 km/h (1 Bft) W-NW 284 5 min 0,000 mm 5,6 UV-I 967 W/m 7,0 C 18,2 C 14,5 km/h (3 Bft)
10.05.2015 14:00 18,1 C 49 % 1026,7 hPa 0,0 l/m 4,3 km/h (1 Bft) W-NW 294 5 min 0,000 mm 5,5 UV-I 951 W/m 7,2 C 18,1 C 22,5 km/h (4 Bft)
10.05.2015 14:05 17,9 C 49 % 1026,7 hPa 0,0 l/m 7,6 km/h (2 Bft) NW 326 5 min 0,458 mm 5,4 UV-I 883 W/m 7,0 C 17,3 C 17,7 km/h (3 Bft)
10.05.2015 14:10 18,5 C 48 % 1026,6 hPa 0,0 l/m 4,3 km/h (1 Bft) W-NW 300 5 min 0,000 mm 5,3 UV-I 865 W/m 7,3 C 18,5 C 17,7 km/h (3 Bft)
10.05.2015 14:15 19,1 C 45 % 1026,7 hPa 0,0 l/m 1,5 km/h (1 Bft) W 259 5 min 0,000 mm 5,2 UV-I 853 W/m 6,9 C 19,1 C 9,7 km/h (2 Bft)
10.05.2015 14:20 18,6 C 49 % 1026,8 hPa 0,0 l/m 7,7 km/h (2 Bft) NW 315 5 min 0,000 mm 5,2 UV-I 866 W/m 7,7 C 18,0 C 24,1 km/h (4 Bft)
10.05.2015 14:25 19,0 C 46 % 1026,6 hPa 0,0 l/m 0,2 km/h (0 Bft) SW 230 5 min 0,000 mm 4,8 UV-I 890 W/m 7,1 C 19,0 C 3,2 km/h (1 Bft)
10.05.2015 14:30 18,2 C 46 % 1026,7 hPa 0,0 l/m 5,5 km/h (1 Bft) W-SW 258 5 min 0,000 mm 5,1 UV-I 888 W/m 6,4 C 18,2 C 14,5 km/h (3 Bft)
10.05.2015 14:35 18,4 C 47 % 1026,7 hPa 0,0 l/m 4,5 km/h (1 Bft) W-SW 242 5 min 0,000 mm 5,0 UV-I 868 W/m 6,9 C 18,4 C 16,1 km/h (3 Bft)
10.05.2015 14:40 18,4 C 47 % 1026,8 hPa 0,0 l/m 3,9 km/h (1 Bft) W-NW 284 5 min 0,000 mm 4,9 UV-I 900 W/m 6,9 C 18,4 C 14,5 km/h (3 Bft)
10.05.2015 14:45 18,4 C 47 % 1026,8 hPa 0,0 l/m 4,9 km/h (1 Bft) W 280 5 min 0,000 mm 4,9 UV-I 880 W/m 6,9 C 18,4 C 14,5 km/h (3 Bft)
10.05.2015 14:50 19,1 C 48 % 1026,8 hPa 0,0 l/m 4,0 km/h (1 Bft) N 9 5 min 0,000 mm 4,6 UV-I 869 W/m 7,8 C 19,1 C 12,9 km/h (3 Bft)
10.05.2015 14:55 19,8 C 43 % 1026,7 hPa 0,0 l/m 1,0 km/h (0 Bft) W-SW 238 5 min 0,000 mm 4,3 UV-I 723 W/m 6,9 C 19,8 C 16,1 km/h (3 Bft)
10.05.2015 15:00 19,4 C 43 % 1026,7 hPa 0,0 l/m 2,9 km/h (1 Bft) S 189 5 min 0,000 mm 4,4 UV-I 796 W/m 6,5 C 19,4 C 11,3 km/h (2 Bft)
10.05.2015 15:05 19,2 C 42 % 1026,7 hPa 0,0 l/m 2,3 km/h (1 Bft) W-SW 255 5 min 0,508 mm 4,5 UV-I 820 W/m 6,0 C 19,2 C 11,3 km/h (2 Bft)
10.05.2015 15:10 19,8 C 42 % 1026,5 hPa 0,0 l/m 1,7 km/h (1 Bft) SW 225 5 min 0,000 mm 4,4 UV-I 803 W/m 6,5 C 19,8 C 14,5 km/h (3 Bft)
10.05.2015 15:15 18,8 C 44 % 1026,4 hPa 0,0 l/m 5,5 km/h (1 Bft) S-SW 212 5 min 0,000 mm 4,2 UV-I 770 W/m 6,3 C 18,8 C 14,5 km/h (3 Bft)
10.05.2015 15:20 18,7 C 46 % 1026,3 hPa 0,0 l/m 2,5 km/h (1 Bft) W 261 5 min 0,000 mm 4,2 UV-I 775 W/m 6,8 C 18,7 C 11,3 km/h (2 Bft)
10.05.2015 15:25 18,8 C 44 % 1026,3 hPa 0,0 l/m 4,8 km/h (1 Bft) W-SW 248 5 min 0,000 mm 4,1 UV-I 771 W/m 6,3 C 18,8 C 12,9 km/h (3 Bft)
10.05.2015 15:30 18,4 C 45 % 1026,3 hPa 0,0 l/m 7,3 km/h (2 Bft) W 266 5 min 0,000 mm 4,1 UV-I 780 W/m 6,3 C 18,0 C 19,3 km/h (3 Bft)
10.05.2015 15:35 18,8 C 47 % 1026,3 hPa 0,0 l/m 0,3 km/h (0 Bft) S-SW 205 5 min 0,000 mm 4,0 UV-I 774 W/m 7,2 C 18,8 C 3,2 km/h (1 Bft)
10.05.2015 15:40 19,6 C 44 % 1026,3 hPa 0,0 l/m 2,6 km/h (1 Bft) S-SW 206 5 min 0,000 mm 3,9 UV-I 771 W/m 7,0 C 19,6 C 14,5 km/h (3 Bft)
10.05.2015 15:45 19,8 C 43 % 1026,3 hPa 0,0 l/m 3,0 km/h (1 Bft) W-SW 240 5 min 0,000 mm 3,8 UV-I 762 W/m 6,9 C 19,8 C 9,7 km/h (2 Bft)
10.05.2015 15:50 19,6 C 41 % 1026,3 hPa 0,0 l/m 2,3 km/h (1 Bft) S-SW 208 5 min 0,000 mm 3,7 UV-I 751 W/m 6,0 C 19,6 C 14,5 km/h (3 Bft)
10.05.2015 15:55 19,8 C 42 % 1026,3 hPa 0,0 l/m 2,3 km/h (1 Bft) W-NW 286 5 min 0,000 mm 3,5 UV-I 737 W/m 6,5 C 19,8 C 11,3 km/h (2 Bft)
10.05.2015 16:00 19,7 C 41 % 1026,4 hPa 0,0 l/m 3,5 km/h (1 Bft) S-SW 196 5 min 0,000 mm 3,4 UV-I 714 W/m 6,1 C 19,7 C 14,5 km/h (3 Bft)
10.05.2015 16:05 20,0 C 41 % 1026,3 hPa 0,0 l/m 3,8 km/h (1 Bft) W-NW 290 5 min 0,457 mm 3,3 UV-I 708 W/m 6,3 C 20,0 C 14,5 km/h (3 Bft)
10.05.2015 16:10 19,8 C 39 % 1026,3 hPa 0,0 l/m 3,4 km/h (1 Bft) SW 229 5 min 0,000 mm 3,3 UV-I 711 W/m 5,4 C 19,8 C 11,3 km/h (2 Bft)
10.05.2015 16:15 19,9 C 41 % 1026,3 hPa 0,0 l/m 2,0 km/h (1 Bft) W 281 5 min 0,000 mm 3,1 UV-I 693 W/m 6,3 C 19,9 C 12,9 km/h (3 Bft)
10.05.2015 16:20 19,8 C 41 % 1026,2 hPa 0,0 l/m 2,2 km/h (1 Bft) SW 214 5 min 0,000 mm 3,0 UV-I 674 W/m 6,2 C 19,8 C 12,9 km/h (3 Bft)
10.05.2015 16:25 19,9 C 40 % 1026,3 hPa 0,0 l/m 2,6 km/h (1 Bft) W-NW 284 5 min 0,000 mm 2,8 UV-I 628 W/m 5,9 C 19,9 C 14,5 km/h (3 Bft)
10.05.2015 16:30 20,1 C 40 % 1026,4 hPa 0,0 l/m 3,0 km/h (1 Bft) W 275 5 min 0,000 mm 2,8 UV-I 665 W/m 6,1 C 20,1 C 11,3 km/h (2 Bft)
10.05.2015 16:35 19,8 C 42 % 1026,4 hPa 0,0 l/m 2,6 km/h (1 Bft) W 272 5 min 0,000 mm 2,8 UV-I 675 W/m 6,5 C 19,8 C 12,9 km/h (3 Bft)
10.05.2015 16:40 19,8 C 39 % 1026,2 hPa 0,0 l/m 1,9 km/h (1 Bft) W-SW 250 5 min 0,000 mm 2,7 UV-I 646 W/m 5,4 C 19,8 C 11,3 km/h (2 Bft)
10.05.2015 16:45 20,2 C 39 % 1026,2 hPa 0,0 l/m 0,1 km/h (0 Bft) W-SW 237 5 min 0,000 mm 2,5 UV-I 622 W/m 5,8 C 20,2 C 1,6 km/h (1 Bft)
10.05.2015 16:50 20,6 C 39 % 1026,1 hPa 0,0 l/m 2,3 km/h (1 Bft) W-SW 238 5 min 0,000 mm 2,4 UV-I 615 W/m 6,2 C 20,6 C 11,3 km/h (2 Bft)
10.05.2015 16:55 20,3 C 39 % 1026,1 hPa 0,0 l/m 2,2 km/h (1 Bft) S 175 5 min 0,000 mm 2,3 UV-I 602 W/m 5,9 C 20,3 C 11,3 km/h (2 Bft)
10.05.2015 17:00 20,7 C 40 % 1026,1 hPa 0,0 l/m 1,0 km/h (0 Bft) S-SW 199 5 min 0,000 mm 2,2 UV-I 591 W/m 6,6 C 20,7 C 6,4 km/h (2 Bft)
10.05.2015 17:05 20,7 C 37 % 1026,1 hPa 0,0 l/m 0,9 km/h (0 Bft) S-SW 198 5 min 0,406 mm 2,1 UV-I 578 W/m 5,5 C 20,7 C 6,4 km/h (2 Bft)
10.05.2015 17:10 20,8 C 37 % 1026,2 hPa 0,0 l/m 1,3 km/h (1 Bft) W-SW 251 5 min 0,000 mm 2,0 UV-I 570 W/m 5,6 C 20,8 C 8,0 km/h (2 Bft)
10.05.2015 17:15 20,6 C 37 % 1026,2 hPa 0,0 l/m 2,2 km/h (1 Bft) W-NW 282 5 min 0,000 mm 1,9 UV-I 559 W/m 5,4 C 20,6 C 9,7 km/h (2 Bft)
10.05.2015 17:20 19,8 C 39 % 1026,2 hPa 0,0 l/m 4,6 km/h (1 Bft) W-SW 251 5 min 0,000 mm 1,8 UV-I 535 W/m 5,4 C 19,8 C 11,3 km/h (2 Bft)
10.05.2015 17:25 20,3 C 41 % 1026,1 hPa 0,0 l/m 0,5 km/h (0 Bft) W 271 5 min 0,000 mm 1,7 UV-I 505 W/m 6,6 C 20,3 C 8,0 km/h (2 Bft)
10.05.2015 17:30 21,0 C 39 % 1026,0 hPa 0,0 l/m 1,6 km/h (1 Bft) W-SW 258 5 min 0,000 mm 1,6 UV-I 478 W/m 6,5 C 21,0 C 9,7 km/h (2 Bft)
10.05.2015 17:35 20,4 C 39 % 1026,2 hPa 0,0 l/m 1,5 km/h (1 Bft) W 271 5 min 0,000 mm 1,6 UV-I 489 W/m 6,0 C 20,4 C 6,4 km/h (2 Bft)
10.05.2015 17:40 20,8 C 40 % 1026,1 hPa 0,0 l/m 0,3 km/h (0 Bft) S-SO 165 5 min 0,000 mm 1,5 UV-I 485 W/m 6,7 C 20,8 C 3,2 km/h (1 Bft)
10.05.2015 17:45 21,0 C 39 % 1026,0 hPa 0,0 l/m 1,3 km/h (1 Bft) S 184 5 min 0,000 mm 1,4 UV-I 468 W/m 6,5 C 21,0 C 8,0 km/h (2 Bft)
10.05.2015 17:50 21,3 C 38 % 1025,9 hPa 0,0 l/m 1,4 km/h (1 Bft) SO 138 5 min 0,000 mm 1,3 UV-I 474 W/m 6,4 C 21,3 C 11,3 km/h (2 Bft)
10.05.2015 17:55 21,2 C 39 % 1025,8 hPa 0,0 l/m 2,4 km/h (1 Bft) S 177 5 min 0,000 mm 1,3 UV-I 470 W/m 6,7 C 21,2 C 11,3 km/h (2 Bft)
10.05.2015 18:00 21,4 C 39 % 1025,8 hPa 0,0 l/m 0,8 km/h (0 Bft) SW 229 5 min 0,000 mm 1,2 UV-I 430 W/m 6,9 C 21,4 C 4,8 km/h (1 Bft)
10.05.2015 18:05 21,2 C 38 % 1025,8 hPa 0,0 l/m 1,8 km/h (1 Bft) SW 225 5 min 0,305 mm 1,1 UV-I 411 W/m 6,3 C 21,2 C 8,0 km/h (2 Bft)
10.05.2015 18:10 20,9 C 39 % 1025,8 hPa 0,0 l/m 0,5 km/h (0 Bft) S-SW 198 5 min 0,000 mm 1,0 UV-I 316 W/m 6,4 C 20,9 C 4,8 km/h (1 Bft)
10.05.2015 18:15 20,8 C 38 % 1025,7 hPa 0,0 l/m 0,0 km/h (0 Bft) SW 215 5 min 0,000 mm 0,9 UV-I 313 W/m 6,0 C 20,8 C 1,6 km/h (1 Bft)
10.05.2015 18:20 20,9 C 39 % 1025,8 hPa 0,0 l/m 0,6 km/h (0 Bft) W 267 5 min 0,000 mm 0,9 UV-I 324 W/m 6,4 C 20,9 C 8,0 km/h (2 Bft)
10.05.2015 18:25 20,6 C 38 % 1025,8 hPa 0,0 l/m 2,7 km/h (1 Bft) W-SW 242 5 min 0,000 mm 0,8 UV-I 279 W/m 5,8 C 20,6 C 8,0 km/h (2 Bft)
10.05.2015 18:30 20,2 C 39 % 1025,8 hPa 0,0 l/m 4,0 km/h (1 Bft) W-SW 251 5 min 0,000 mm 0,7 UV-I 275 W/m 5,8 C 20,2 C 9,7 km/h (2 Bft)
10.05.2015 18:35 20,0 C 40 % 1025,7 hPa 0,0 l/m 1,5 km/h (1 Bft) SW 222 5 min 0,000 mm 0,7 UV-I 275 W/m 6,0 C 20,0 C 4,8 km/h (1 Bft)
10.05.2015 18:40 20,1 C 39 % 1025,7 hPa 0,0 l/m 0,6 km/h (0 Bft) S-SW 200 5 min 0,000 mm 0,6 UV-I 236 W/m 5,7 C 20,1 C 4,8 km/h (1 Bft)
10.05.2015 18:45 20,1 C 39 % 1025,7 hPa 0,0 l/m 0,0 km/h (0 Bft) S-SW 200 5 min 0,000 mm 0,6 UV-I 242 W/m 5,7 C 20,1 C 0,0 km/h (0 Bft)
10.05.2015 18:50 20,3 C 40 % 1025,7 hPa 0,0 l/m 0,0 km/h (0 Bft) SW 235 5 min 0,000 mm 0,6 UV-I 264 W/m 6,3 C 20,3 C 0,0 km/h (0 Bft)
10.05.2015 18:55 20,6 C 39 % 1025,7 hPa 0,0 l/m 0,1 km/h (0 Bft) W-SW 251 5 min 0,000 mm 0,5 UV-I 245 W/m 6,2 C 20,6 C 3,2 km/h (1 Bft)
10.05.2015 19:00 20,5 C 40 % 1025,7 hPa 0,0 l/m 1,8 km/h (1 Bft) W 269 5 min 0,000 mm 0,5 UV-I 215 W/m 6,4 C 20,5 C 9,7 km/h (2 Bft)
10.05.2015 19:05 20,1 C 39 % 1025,6 hPa 0,0 l/m 0,2 km/h (0 Bft) W 271 5 min 0,178 mm 0,2 UV-I 161 W/m 5,7 C 20,1 C 3,2 km/h (1 Bft)
10.05.2015 19:10 19,9 C 40 % 1025,6 hPa 0,0 l/m 0,0 km/h (0 Bft) W 274 0 min 0,000 mm 0,0 UV-I 131 W/m 5,9 C 19,9 C 0,0 km/h (0 Bft)
10.05.2015 19:15 19,9 C 41 % 1025,5 hPa 0,0 l/m 0,0 km/h (0 Bft) W 274 0 min 0,000 mm 0,0 UV-I 122 W/m 6,3 C 19,9 C 0,0 km/h (0 Bft)
10.05.2015 19:20 19,9 C 40 % 1025,6 hPa 0,0 l/m 0,0 km/h (0 Bft) W-NW 298 0 min 0,000 mm 0,0 UV-I 117 W/m 5,9 C 19,9 C 0,0 km/h (0 Bft)
10.05.2015 19:25 19,8 C 40 % 1025,6 hPa 0,0 l/m 0,0 km/h (0 Bft) W-NW 298 0 min 0,000 mm 0,0 UV-I 111 W/m 5,8 C 19,8 C 0,0 km/h (0 Bft)
10.05.2015 19:30 19,5 C 41 % 1025,6 hPa 0,0 l/m 0,0 km/h (0 Bft) W 272 0 min 0,000 mm 0,0 UV-I 102 W/m 5,9 C 19,5 C 1,6 km/h (1 Bft)
10.05.2015 19:35 19,1 C 42 % 1025,6 hPa 0,0 l/m 0,1 km/h (0 Bft) W-SW 239 0 min 0,000 mm 0,0 UV-I 91 W/m 5,9 C 19,1 C 3,2 km/h (1 Bft)
10.05.2015 19:40 18,9 C 43 % 1025,7 hPa 0,0 l/m 0,0 km/h (0 Bft) W-SW 239 0 min 0,000 mm 0,0 UV-I 93 W/m 6,0 C 18,9 C 0,0 km/h (0 Bft)
10.05.2015 19:45 18,8 C 44 % 1025,7 hPa 0,0 l/m 0,0 km/h (0 Bft) W-SW 239 5 min 0,000 mm 0,0 UV-I 97 W/m 6,3 C 18,8 C 0,0 km/h (0 Bft)
10.05.2015 19:50 18,8 C 43 % 1025,7 hPa 0,0 l/m 0,0 km/h (0 Bft) W-SW 239 5 min 0,000 mm 0,0 UV-I 110 W/m 6,0 C 18,8 C 0,0 km/h (0 Bft)
10.05.2015 19:55 18,7 C 43 % 1025,7 hPa 0,0 l/m 0,0 km/h (0 Bft) W-SW 239 5 min 0,000 mm 0,0 UV-I 99 W/m 5,9 C 18,7 C 0,0 km/h (0 Bft)
10.05.2015 20:00 18,7 C 44 % 1025,7 hPa 0,0 l/m 0,0 km/h (0 Bft) W-SW 239 5 min 0,000 mm 0,0 UV-I 92 W/m 6,2 C 18,7 C 0,0 km/h (0 Bft)
10.05.2015 20:05 18,6 C 45 % 1025,7 hPa 0,0 l/m 0,0 km/h (0 Bft) W-SW 239 5 min 0,076 mm 0,0 UV-I 84 W/m 6,4 C 18,6 C 0,0 km/h (0 Bft)
10.05.2015 20:10 18,7 C 48 % 1025,7 hPa 0,0 l/m 0,0 km/h (0 Bft) W-SW 239 5 min 0,000 mm 0,0 UV-I 70 W/m 7,5 C 18,7 C 0,0 km/h (0 Bft)
10.05.2015 20:15 18,7 C 47 % 1025,7 hPa 0,0 l/m 0,0 km/h (0 Bft) W-SW 239 5 min 0,000 mm 0,0 UV-I 64 W/m 7,2 C 18,7 C 0,0 km/h (0 Bft)
10.05.2015 20:20 18,7 C 49 % 1025,7 hPa 0,0 l/m 0,0 km/h (0 Bft) W-SW 239 5 min 0,000 mm 0,0 UV-I 51 W/m 7,8 C 18,7 C 0,0 km/h (0 Bft)
10.05.2015 20:25 18,5 C 50 % 1025,7 hPa 0,0 l/m 0,0 km/h (0 Bft) W-SW 239 5 min 0,000 mm 0,0 UV-I 41 W/m 7,9 C 18,5 C 0,0 km/h (0 Bft)
10.05.2015 20:30 18,2 C 50 % 1025,7 hPa 0,0 l/m 0,0 km/h (0 Bft) W-SW 239 5 min 0,000 mm 0,0 UV-I 34 W/m 7,6 C 18,2 C 0,0 km/h (0 Bft)
10.05.2015 20:35 17,8 C 52 % 1025,7 hPa 0,0 l/m 0,0 km/h (0 Bft) W-SW 239 5 min 0,000 mm 0,0 UV-I 27 W/m 7,8 C 17,8 C 0,0 km/h (0 Bft)
10.05.2015 20:40 17,5 C 52 % 1025,8 hPa 0,0 l/m 0,0 km/h (0 Bft) W-SW 239 5 min 0,000 mm 0,0 UV-I 20 W/m 7,5 C 17,5 C 0,0 km/h (0 Bft)
10.05.2015 20:45 17,2 C 53 % 1025,8 hPa 0,0 l/m 0,0 km/h (0 Bft) W-SW 239 5 min 0,000 mm 0,0 UV-I 15 W/m 7,5 C 17,2 C 0,0 km/h (0 Bft)
10.05.2015 20:50 16,7 C 54 % 1025,9 hPa 0,0 l/m 0,0 km/h (0 Bft) W-SW 239 0 min 0,000 mm 0,0 UV-I 10 W/m 7,3 C 16,7 C 0,0 km/h (0 Bft)
10.05.2015 20:55 16,4 C 54 % 1025,9 hPa 0,0 l/m 0,0 km/h (0 Bft) W-SW 239 0 min 0,000 mm 0,0 UV-I 6 W/m 7,1 C 16,4 C 0,0 km/h (0 Bft)
10.05.2015 21:00 16,1 C 54 % 1026,0 hPa 0,0 l/m 0,0 km/h (0 Bft) W-SW 239 0 min 0,000 mm 0,0 UV-I 0 W/m 6,8 C 16,1 C 0,0 km/h (0 Bft)
10.05.2015 21:05 15,8 C 56 % 1026,0 hPa 0,0 l/m 0,0 km/h (0 Bft) W-SW 239 0 min 0,025 mm 0,0 UV-I 0 W/m 7,0 C 15,8 C 0,0 km/h (0 Bft)
10.05.2015 21:10 15,6 C 56 % 1026,1 hPa 0,0 l/m 0,0 km/h (0 Bft) W-SW 239 0 min 0,000 mm 0,0 UV-I 0 W/m 6,9 C 15,6 C 0,0 km/h (0 Bft)
10.05.2015 21:15 15,3 C 57 % 1026,1 hPa 0,0 l/m 0,0 km/h (0 Bft) W-SW 239 0 min 0,000 mm 0,0 UV-I 0 W/m 6,8 C 15,3 C 0,0 km/h (0 Bft)
10.05.2015 21:20 15,1 C 57 % 1026,1 hPa 0,0 l/m 0,0 km/h (0 Bft) W-SW 239 0 min 0,000 mm 0,0 UV-I 0 W/m 6,6 C 15,1 C 0,0 km/h (0 Bft)
10.05.2015 21:25 14,5 C 59 % 1026,1 hPa 0,0 l/m 0,0 km/h (0 Bft) W-SW 239 0 min 0,000 mm 0,0 UV-I 0 W/m 6,6 C 14,5 C 0,0 km/h (0 Bft)
10.05.2015 21:30 13,9 C 61 % 1026,1 hPa 0,0 l/m 0,0 km/h (0 Bft) W-SW 239 0 min 0,000 mm 0,0 UV-I 0 W/m 6,5 C 13,9 C 0,0 km/h (0 Bft)
10.05.2015 21:35 13,7 C 64 % 1026,1 hPa 0,0 l/m 0,0 km/h (0 Bft) W-SW 239 0 min 0,000 mm 0,0 UV-I 0 W/m 7,0 C 13,7 C 0,0 km/h (0 Bft)
10.05.2015 21:40 13,2 C 65 % 1026,2 hPa 0,0 l/m 0,0 km/h (0 Bft) W-SW 239 0 min 0,000 mm 0,0 UV-I 0 W/m 6,8 C 13,2 C 0,0 km/h (0 Bft)
10.05.2015 21:45 13,0 C 67 % 1026,1 hPa 0,0 l/m 0,0 km/h (0 Bft) W-SW 239 0 min 0,000 mm 0,0 UV-I 0 W/m 7,0 C 13,0 C 0,0 km/h (0 Bft)
10.05.2015 21:50 12,8 C 67 % 1026,2 hPa 0,0 l/m 0,0 km/h (0 Bft) W-SW 239 0 min 0,000 mm 0,0 UV-I 0 W/m 6,8 C 12,8 C 0,0 km/h (0 Bft)
10.05.2015 21:55 12,6 C 68 % 1026,2 hPa 0,0 l/m 0,0 km/h (0 Bft) W-SW 239 0 min 0,000 mm 0,0 UV-I 0 W/m 6,9 C 12,6 C 0,0 km/h (0 Bft)
10.05.2015 22:00 12,1 C 70 % 1026,2 hPa 0,0 l/m 0,0 km/h (0 Bft) W-SW 239 0 min 0,000 mm 0,0 UV-I 0 W/m 6,8 C 12,1 C 0,0 km/h (0 Bft)
10.05.2015 22:05 11,7 C 72 % 1026,2 hPa 0,0 l/m 0,0 km/h (0 Bft) W-SW 239 0 min 0,000 mm 0,0 UV-I 0 W/m 6,8 C 11,7 C 0,0 km/h (0 Bft)
10.05.2015 22:10 11,4 C 73 % 1026,2 hPa 0,0 l/m 0,0 km/h (0 Bft) W-SW 239 0 min 0,000 mm 0,0 UV-I 0 W/m 6,7 C 11,4 C 0,0 km/h (0 Bft)
10.05.2015 22:15 11,4 C 73 % 1026,2 hPa 0,0 l/m 0,0 km/h (0 Bft) W-SW 239 0 min 0,000 mm 0,0 UV-I 0 W/m 6,7 C 11,4 C 0,0 km/h (0 Bft)
10.05.2015 22:20 11,4 C 74 % 1026,2 hPa 0,0 l/m 0,0 km/h (0 Bft) W-SW 239 0 min 0,000 mm 0,0 UV-I 0 W/m 6,9 C 11,4 C 0,0 km/h (0 Bft)
10.05.2015 22:25 11,4 C 74 % 1026,2 hPa 0,0 l/m 0,0 km/h (0 Bft) W-SW 239 0 min 0,000 mm 0,0 UV-I 0 W/m 6,9 C 11,4 C 0,0 km/h (0 Bft)
10.05.2015 22:30 11,4 C 74 % 1026,2 hPa 0,0 l/m 0,0 km/h (0 Bft) W-SW 239 0 min 0,000 mm 0,0 UV-I 0 W/m 6,9 C 11,4 C 0,0 km/h (0 Bft)
10.05.2015 22:35 11,4 C 74 % 1026,3 hPa 0,0 l/m 0,0 km/h (0 Bft) W-SW 239 0 min 0,000 mm 0,0 UV-I 0 W/m 6,9 C 11,4 C 0,0 km/h (0 Bft)
10.05.2015 22:40 11,3 C 75 % 1026,3 hPa 0,0 l/m 0,0 km/h (0 Bft) W-SW 239 0 min 0,000 mm 0,0 UV-I 0 W/m 7,0 C 11,3 C 0,0 km/h (0 Bft)
10.05.2015 22:45 11,3 C 75 % 1026,2 hPa 0,0 l/m 0,0 km/h (0 Bft) W-SW 239 0 min 0,000 mm 0,0 UV-I 0 W/m 7,0 C 11,3 C 0,0 km/h (0 Bft)
10.05.2015 22:50 11,2 C 75 % 1026,1 hPa 0,0 l/m 0,0 km/h (0 Bft) W-SW 239 0 min 0,000 mm 0,0 UV-I 0 W/m 6,9 C 11,2 C 0,0 km/h (0 Bft)
10.05.2015 22:55 10,9 C 75 % 1026,2 hPa 0,0 l/m 0,0 km/h (0 Bft) W-SW 239 0 min 0,000 mm 0,0 UV-I 0 W/m 6,6 C 10,9 C 0,0 km/h (0 Bft)
10.05.2015 23:00 10,7 C 76 % 1026,1 hPa 0,0 l/m 0,0 km/h (0 Bft) W-SW 239 0 min 0,000 mm 0,0 UV-I 0 W/m 6,6 C 10,7 C 0,0 km/h (0 Bft)
10.05.2015 23:05 10,6 C 77 % 1026,2 hPa 0,0 l/m 0,0 km/h (0 Bft) W-SW 239 0 min 0,026 mm 0,0 UV-I 0 W/m 6,7 C 10,6 C 0,0 km/h (0 Bft)
10.05.2015 23:10 10,4 C 78 % 1026,2 hPa 0,0 l/m 0,0 km/h (0 Bft) W-SW 239 0 min 0,000 mm 0,0 UV-I 0 W/m 6,7 C 10,4 C 0,0 km/h (0 Bft)
10.05.2015 23:15 10,4 C 78 % 1026,2 hPa 0,0 l/m 0,0 km/h (0 Bft) W-SW 239 0 min 0,000 mm 0,0 UV-I 0 W/m 6,7 C 10,4 C 0,0 km/h (0 Bft)
10.05.2015 23:20 10,3 C 79 % 1026,3 hPa 0,0 l/m 0,0 km/h (0 Bft) W-SW 239 0 min 0,000 mm 0,0 UV-I 0 W/m 6,8 C 10,3 C 0,0 km/h (0 Bft)
10.05.2015 23:25 10,2 C 79 % 1026,3 hPa 0,0 l/m 0,0 km/h (0 Bft) W-SW 239 0 min 0,000 mm 0,0 UV-I 0 W/m 6,7 C 10,2 C 0,0 km/h (0 Bft)
10.05.2015 23:30 10,2 C 79 % 1026,3 hPa 0,0 l/m 0,0 km/h (0 Bft) W-SW 239 0 min 0,000 mm 0,0 UV-I 0 W/m 6,7 C 10,2 C 0,0 km/h (0 Bft)
10.05.2015 23:35 10,1 C 79 % 1026,3 hPa 0,0 l/m 0,0 km/h (0 Bft) W-SW 239 0 min 0,000 mm 0,0 UV-I 0 W/m 6,6 C 10,1 C 0,0 km/h (0 Bft)
10.05.2015 23:40 9,9 C 79 % 1026,3 hPa 0,0 l/m 0,0 km/h (0 Bft) W-SW 239 0 min 0,000 mm 0,0 UV-I 0 W/m 6,4 C 9,9 C 0,0 km/h (0 Bft)
10.05.2015 23:45 9,8 C 79 % 1026,3 hPa 0,0 l/m 0,0 km/h (0 Bft) W-SW 239 0 min 0,000 mm 0,0 UV-I 0 W/m 6,3 C 9,8 C 0,0 km/h (0 Bft)
10.05.2015 23:50 9,6 C 80 % 1026,3 hPa 0,0 l/m 0,0 km/h (0 Bft) W-SW 239 0 min 0,000 mm 0,0 UV-I 0 W/m 6,3 C 9,6 C 0,0 km/h (0 Bft)
10.05.2015 23:55 9,5 C 80 % 1026,2 hPa 0,0 l/m 0,0 km/h (0 Bft) W-SW 239 0 min 0,000 mm 0,0 UV-I 0 W/m 6,2 C 9,5 C 0,0 km/h (0 Bft)
_ Min-Zeit 23:55 17:05 00:00 - 00:45 - - - - - - 17:15 23:55 00:45
Minimum _ 9,4 C 37 % 1021,3 hPa - 0,0 km/h (0 Bft) - - - - - - 5,4 C 9,5 C 0,0 km/h (0 Bft)
_ Max-Zeit 17:50 06:30 12:05 00:00 12:10 - - 08:40 15:05 13:40 13:55 09:50 18:00 10:50
Maximum _ 21,4 C 90 % 1026,9 hPa 0,0 l/m 12,0 km/h
W-NW (2 Bft)
- - 5 min 0,508 mm 5,6 UV-I 967 W/m 9,3 C 21,4 C 25,7 km/h
W-NW (4 Bft)
Durchschnitt _ 14,2 C 67 % 1025,2 hPa #0,0 l/m 2,0 km/h (1 Bft) W-NW - #10:25 h #3,861 mm 2,9 UV-I 436 W/m 7,4 C 14,1 C 7,5 km/h (2 Bft)